Wind_Speed
10 8 7 6 5 3 2 1 0 1 1 2 4 5 6 8 8 9 9 9 10 10 10 10 9 10 10 10 10 9 9 8 7 7 8 6 5 5 6 7 7 8 8
10 8 7 7 5 4 3 2 1 1 2 3 4 5 6 7 8 8 9 9 9 9 9 9 9 9 9 9 9 9 8 8 8 8 7 6 6 6 7 8 8 8 9
8 8 7 7 6 5 4 3 3 3 4 5 6 6 8 8 8 9 9 10 10 10 9 9 9 9 9 10 10 9 9 9 9 9 8 6 6 5 6 7 8 9 9
6 6 7 7 6 4 3 3 4 4 6 7 8 9 10 10 11 11 11 12 12 11 11 11 11 10 11 11 11 11 11 10 10 10 10 10 9 7 7 7 7 8 9
6 6 6 5 4 2 1 2 3 5 7 7 8 9 10 11 11 12 13 13 13 13 13 13 14 14 14 13 14 13 13 13 12 11 11 11 10 10 10 10 7 8 8
6 6 6 5 4 2 2 4 5 7 7 8 9 10 12 12 13 14 15 16 16 16 16 15 15 15 16 17 17 17 17 16 15 15 14 12 12 11 10 8 10 11 11
7 6 5 4 2 2 4 5 6 7 9 10 11 12 13 14 14 15 15 15 15 15 15 16 16 16 17 18 18 19 19 19 18 17 17 16 14 13 12 10 8 13 12
6 6 5 4 3 3 5 6 7 9 10 11 13 14 14 14 13 13 14 14 15 15 16 17 17 18 17 18 19 18 19 21 21 21 21 19 18 16 15 14 12 12 16
7 7 5 3 4 5 6 7 8 9 11 12 13 13 13 12 13 13 15 16 17 18 19 19 20 21 21 21 22 23 22 21 21 21 24 23 22 21 19 17 16 16 17
8 6 5 5 6 7 8 9 10 12 13 13 13 13 13 14 15 16 17 18 19 20 21 22 23 24 24 24 25 26 26 25 24 24 24 25 25 23 22 22 21 20 21
8 7 6 6 7 8 9 11 12 13 14 13 14 14 15 16 17 18 19 20 22 23 24 25 25 27 27 27 27 27 29 29 28 27 27 26 27 26 24 25 25 25 25
9 8 7 7 8 9 10 12 14 15 15 14 14 15 16 17 19 20 22 24 25 26 27 26 26 26 26 25 26 27 28 29 30 30 29 30 30 29 27 28 28 27 28
10 9 8 9 9 10 11 13 15 16 15 15 15 16 18 20 21 23 25 27 27 27 26 25 24 24 24 24 24 25 26 27 28 29 30 32 33 32 31 29 28 30 30
11 10 10 10 10 11 13 15 16 17 16 16 17 19 21 23 25 27 28 28 27 26 26 26 26 26 26 27 26 26 27 27 29 30 30 32 33 34 34 33 32 31 32
12 11 11 11 12 13 15 17 18 18 18 19 20 21 23 25 27 28 29 28 27 27 27 27 27 28 28 29 30 31 31 31 31 31 32 33 34 34 35 36 35 34 33
13 13 12 12 13 15 17 19 18 19 20 20 22 24 25 27 29 29 28 27 28 28 29 30 30 31 33 33 34 33 32 31 30 30 31 32 33 34 35 35 36 37 37
14 14 13 14 16 17 19 20 20 21 22 23 24 26 28 29 28 27 27 28 29 30 31 33 35 35 34 32 28 26 24 24 24 24 25 26 28 30 31 33 35 37 38
15 14 15 16 18 19 20 21 22 23 24 25 27 29 29 28 26 27 28 29 30 31 32 33 31 29 25 23 23 21 19 19 19 20 21 22 23 24 25 27 30 32 36
16 16 17 19 20 21 22 23 24 24 25 27 29 29 27 26 26 27 28 30 31 32 31 27 26 22 18 19 20 20 18 19 19 19 19 19 20 21 22 23 25 27 30
16 18 19 20 21 23 24 24 24 26 28 28 27 26 25 25 26 28 30 31 32 32 28 24 23 22 18 17 18 18 19 20 20 19 19 20 20 20 21 22 23 24 25
19 20 21 22 23 24 25 25 26 27 26 24 24 25 25 26 26 27 29 29 29 29 25 21 19 19 20 20 22 21 20 20 20 20 20 20 19 19 20 21 21 22 23
21 22 23 24 24 24 25 26 25 23 23 24 24 25 27 28 28 28 28 28 27 28 26 24 21 20 20 19 19 21 23 23 24 23 23 24 23 22 21 22 22 22 22
20 23 25 25 24 25 25 22 22 22 23 24 26 26 27 29 28 27 26 26 26 25 25 24 23 21 21 22 20 21 21 22 24 24 25 26 26 25 24 25 26 24 23
24 25 26 24 24 23 20 19 20 21 23 25 25 25 25 26 26 25 25 25 26 26 26 25 24 23 22 22 23 23 22 22 22 24 25 27 28 27 24 23 23 25 26
26 26 23 24 22 18 17 17 20 24 25 23 22 22 22 24 25 25 25 26 25 25 26 25 25 24 24 23 22 21 22 22 23 23 22 25 28 28 27 26 25 25 25
22 22 21 21 18 17 16 18 23 26 24 21 21 21 23 24 25 25 25 25 25 26 26 26 25 25 25 25 24 23 22 21 21 22 22 24 25 26 26 25 25 26 26
Wind_Direction
178 175 169 168 165 167 160 137 143 116 50 15 7 3 6 3 6 9 12 17 18 16 15 17 21 24 25 23 22 22 21 16 3 356 338 337 317 292 277 274 271 264 256
188 195 191 188 194 208 222 218 265 299 323 331 336 334 339 341 339 342 347 350 353 353 355 356 358 0 3 3 4 3 4 3 357 359 -0 348 322 299 280 276 278 276 266
193 202 200 192 205 218 230 246 269 284 294 301 305 308 314 316 318 318 320 323 327 330 332 332 332 335 339 339 340 341 343 344 343 341 343 345 329 312 296 287 276 272 271
171 177 169 175 192 218 239 259 285 312 321 325 323 319 318 318 315 313 315 317 317 315 313 312 312 313 317 319 319 319 321 324 324 324 326 328 329 328 319 304 290 285 271
148 160 159 163 169 178 213 290 315 327 326 324 319 320 320 321 317 315 312 310 310 310 307 304 303 303 304 303 303 303 304 306 309 309 310 310 312 317 321 320 304 309 294
158 157 162 174 188 219 293 313 323 322 316 318 316 320 319 317 313 311 310 310 309 307 303 301 300 298 299 297 296 297 297 298 296 296 296 296 297 299 304 317 273 297 306
176 176 183 187 220 284 307 312 314 315 317 320 320 319 314 311 310 310 311 310 310 311 309 306 300 298 296 294 293 294 296 291 291 289 287 287 286 287 289 290 290 283 296
193 188 192 207 246 284 295 304 314 316 320 318 317 315 313 314 314 315 316 316 315 314 313 310 307 305 299 296 292 287 281 284 287 288 285 282 280 279 278 277 274 271 277
204 195 204 234 267 279 293 305 314 317 315 313 314 312 311 312 314 316 317 317 316 314 311 307 305 301 299 296 294 291 290 284 279 280 281 282 280 279 278 276 272 268 268
207 206 226 252 269 291 303 314 316 316 314 315 314 315 317 320 321 320 319 316 312 309 305 302 299 296 293 291 290 290 288 287 285 281 276 278 278 278 277 275 272 268 267
209 221 241 262 285 298 308 314 315 316 317 317 318 319 321 320 319 319 316 312 309 305 301 299 296 293 290 287 285 284 284 284 282 281 280 276 273 273 274 272 272 270 269
216 230 252 273 289 299 308 313 317 318 316 315 317 318 319 317 316 314 311 310 308 306 303 301 298 294 292 290 288 285 282 281 280 278 276 274 273 271 267 267 268 271 271
226 242 260 276 287 295 305 314 317 314 311 311 313 315 313 312 311 311 312 312 310 307 305 303 300 298 296 293 290 287 285 284 281 278 275 272 270 268 266 263 262 263 267
230 245 263 274 284 298 309 312 312 309 308 309 310 310 310 311 314 313 312 310 308 307 306 304 303 301 299 297 294 291 288 286 284 281 278 274 272 270 267 265 261 258 261
236 252 264 274 288 300 304 308 308 309 308 307 309 312 311 310 310 311 311 309 307 306 304 302 301 299 297 295 294 292 289 285 282 279 276 273 271 269 268 266 264 261 259
241 252 263 277 289 296 302 305 308 307 307 310 310 307 307 309 311 310 309 309 309 309 308 306 304 302 298 294 292 291 289 287 284 282 280 277 275 272 269 267 266 264 262
246 257 269 280 289 295 301 307 309 308 308 306 306 307 309 309 308 310 311 312 312 310 309 308 307 304 301 297 294 290 290 290 288 285 283 281 277 275 272 268 266 265 264
252 264 274 284 290 298 305 307 306 306 305 307 307 307 306 308 312 314 315 315 313 312 311 310 308 308 306 305 300 299 298 296 293 295 295 294 290 285 282 278 276 272 269
259 270 279 285 292 301 304 303 305 304 304 304 304 307 310 312 313 316 316 316 315 313 312 310 310 310 308 306 306 307 304 298 296 296 294 292 292 292 291 287 281 277 274
267 274 279 286 295 299 299 301 301 302 303 305 306 306 306 310 315 317 318 318 318 315 313 312 313 317 315 307 302 304 305 303 301 300 299 298 297 296 294 293 292 291 287
265 274 280 289 293 296 298 299 301 302 303 304 305 306 308 311 312 312 314 315 317 315 312 310 314 316 316 314 309 307 304 301 298 295 293 291 290 288 286 285 284 285 285
269 276 283 288 293 295 296 299 302 302 304 303 306 308 310 308 308 312 315 319 320 318 317 316 316 318 316 312 306 305 304 302 297 295 292 288 285 282 279 276 277 279 281
272 276 282 287 289 292 293 298 301 305 306 308 307 304 307 308 310 314 318 322 321 321 321 320 319 320 318 315 312 307 301 296 295 297 292 291 290 290 287 288 288 285 281
271 276 282 286 287 287 290 298 304 309 308 305 305 310 312 312 314 317 320 322 323 323 323 323 324 323 320 318 318 314 308 302 295 292 295 294 292 291 289 284 284 288 287
270 274 278 278 278 279 289 300 311 313 309 308 310 312 315 315 316 318 319 320 321 320 319 320 321 321 319 319 316 312 309 306 302 297 292 290 294 294 293 293 290 284 284
266 268 265 267 266 275 285 306 318 317 312 310 309 312 314 314 312 313 314 315 316 316 316 316 317 318 318 318 316 313 309 305 302 298 292 286 286 286 289 289 286 283 282
Height
3194 3194 3196 3197 3198 3198 3198 3198 3198 3198 3198 3198 3197 3197 3196 3196 3195 3194 3194 3193 3192 3192 3191 3190 3189 3188 3187 3186 3185 3184 3183 3182 3181 3181 3180 3179 3178 3178 3178 3178 3178 3178 3178
3193 3194 3195 3197 3197 3198 3198 3198 3198 3198 3198 3198 3197 3197 3196 3196 3195 3194 3194 3193 3192 3192 3191 3190 3189 3188 3187 3186 3185 3185 3183 3182 3181 3180 3179 3178 3177 3177 3177 3176 3176 3176 3176
3193 3194 3195 3196 3197 3198 3198 3198 3198 3197 3197 3197 3197 3197 3196 3196 3195 3194 3193 3193 3192 3191 3190 3190 3189 3188 3187 3186 3185 3184 3183 3182 3181 3180 3178 3177 3177 3176 3175 3174 3174 3174 3174
3193 3194 3194 3196 3196 3197 3197 3197 3197 3197 3196 3196 3196 3195 3195 3194 3194 3193 3192 3192 3191 3190 3189 3188 3188 3187 3186 3185 3184 3183 3182 3181 3180 3179 3178 3177 3175 3174 3173 3172 3172 3172 3172
3192 3194 3194 3195 3196 3197 3197 3196 3196 3196 3195 3195 3194 3193 3193 3192 3192 3191 3190 3190 3189 3188 3188 3187 3186 3185 3184 3183 3182 3181 3180 3180 3179 3178 3177 3175 3174 3173 3172 3171 3171 3170 3170
3192 3193 3194 3195 3196 3197 3197 3197 3196 3196 3195 3194 3194 3193 3192 3191 3190 3189 3188 3187 3186 3186 3185 3184 3183 3183 3182 3181 3180 3179 3178 3177 3176 3176 3175 3174 3173 3172 3171 3170 3170 3169 3169
3192 3193 3194 3195 3196 3197 3197 3196 3196 3195 3194 3194 3192 3191 3190 3189 3188 3186 3186 3185 3184 3183 3182 3181 3180 3179 3179 3178 3177 3176 3175 3174 3173 3172 3172 3171 3170 3170 3169 3168 3167 3167 3167
3191 3192 3194 3195 3196 3196 3196 3196 3195 3194 3193 3192 3191 3190 3188 3187 3186 3185 3184 3183 3182 3181 3180 3179 3178 3177 3175 3174 3173 3172 3171 3170 3170 3169 3168 3168 3168 3167 3167 3166 3166 3165 3164
3191 3192 3193 3194 3195 3195 3195 3194 3193 3192 3191 3190 3188 3187 3186 3185 3184 3183 3182 3181 3180 3179 3178 3176 3175 3173 3172 3171 3169 3168 3167 3166 3165 3165 3164 3164 3164 3164 3164 3164 3163 3163 3162
3190 3191 3192 3193 3193 3193 3193 3192 3191 3190 3189 3187 3186 3185 3184 3183 3182 3181 3180 3179 3177 3176 3174 3172 3170 3169 3168 3166 3165 3164 3163 3162 3161 3160 3160 3159 3159 3160 3160 3160 3159 3159 3158
3188 3190 3191 3191 3192 3192 3191 3190 3189 3188 3186 3185 3184 3183 3182 3181 3179 3178 3177 3175 3173 3171 3169 3167 3165 3163 3162 3161 3159 3158 3157 3156 3155 3155 3155 3154 3153 3154 3154 3154 3154 3154 3154
3187 3188 3189 3190 3190 3189 3189 3188 3187 3186 3184 3184 3182 3181 3179 3178 3176 3174 3172 3170 3168 3166 3163 3161 3159 3157 3156 3154 3153 3152 3150 3149 3148 3148 3148 3147 3146 3147 3148 3148 3148 3148 3148
3186 3187 3188 3188 3188 3187 3186 3185 3184 3184 3183 3181 3180 3178 3176 3174 3172 3170 3168 3165 3163 3160 3158 3155 3153 3151 3150 3149 3147 3145 3144 3143 3142 3141 3141 3140 3139 3140 3140 3140 3141 3141 3142
3184 3185 3185 3185 3185 3185 3184 3183 3182 3182 3180 3178 3176 3174 3172 3171 3168 3166 3163 3161 3158 3156 3153 3151 3149 3147 3145 3143 3142 3140 3138 3136 3135 3134 3134 3133 3132 3132 3132 3133 3134 3134 3134
3182 3183 3183 3183 3182 3182 3181 3180 3179 3178 3177 3175 3173 3172 3170 3167 3165 3162 3159 3156 3153 3150 3148 3146 3143 3141 3139 3136 3134 3133 3131 3129 3128 3126 3125 3124 3124 3124 3124 3124 3125 3126 3127
3179 3180 3180 3180 3180 3179 3179 3178 3176 3175 3174 3172 3170 3168 3166 3163 3161 3157 3154 3151 3148 3146 3143 3141 3138 3136 3133 3130 3127 3124 3122 3121 3120 3118 3117 3117 3116 3116 3116 3117 3117 3119 3119
3176 3177 3177 3178 3177 3177 3176 3175 3173 3171 3170 3168 3166 3164 3162 3159 3156 3153 3150 3147 3144 3141 3138 3135 3131 3128 3125 3122 3119 3117 3116 3114 3113 3111 3110 3109 3108 3108 3108 3108 3109 3109 3110
3173 3175 3175 3175 3174 3173 3172 3171 3169 3167 3166 3164 3162 3159 3157 3154 3151 3148 3146 3143 3140 3136 3133 3129 3125 3122 3119 3116 3114 3113 3111 3109 3107 3106 3105 3104 3104 3102 3101 3101 3102 3102 3102
3171 3172 3172 3171 3170 3170 3168 3166 3165 3164 3162 3160 3157 3155 3152 3150 3147 3144 3141 3138 3134 3131 3127 3123 3120 3118 3115 3112 3109 3108 3107 3104 3102 3101 3099 3099 3098 3097 3096 3096 3094 3094 3093
3169 3168 3168 3168 3167 3166 3164 3163 3161 3160 3158 3156 3153 3150 3148 3145 3143 3140 3136 3133 3129 3126 3122 3119 3115 3113 3111 3109 3105 3104 3103 3101 3099 3096 3095 3095 3094 3092 3091 3090 3090 3089 3088
3165 3165 3164 3164 3163 3162 3161 3159 3157 3155 3153 3151 3148 3146 3143 3141 3137 3134 3131 3127 3123 3120 3118 3115 3112 3109 3107 3105 3101 3099 3098 3096 3093 3091 3089 3087 3086 3085 3083 3082 3081 3080 3079
3161 3161 3160 3159 3158 3158 3156 3154 3152 3150 3148 3146 3144 3141 3139 3136 3133 3130 3126 3123 3119 3117 3114 3111 3108 3106 3104 3102 3100 3096 3094 3093 3089 3087 3085 3081 3079 3078 3076 3073 3072 3072 3071
3157 3156 3155 3155 3154 3153 3151 3149 3148 3146 3144 3142 3140 3137 3134 3132 3129 3126 3122 3119 3116 3113 3110 3107 3104 3102 3100 3097 3095 3094 3090 3088 3084 3081 3079 3077 3075 3074 3074 3072 3070 3067 3065
3152 3151 3151 3151 3149 3148 3147 3145 3144 3142 3140 3138 3135 3132 3130 3128 3125 3122 3119 3115 3112 3109 3106 3103 3099 3096 3095 3092 3089 3088 3086 3084 3082 3079 3076 3072 3069 3068 3067 3066 3064 3063 3062
3146 3146 3146 3145 3144 3144 3143 3142 3140 3138 3136 3133 3130 3128 3126 3123 3120 3117 3114 3111 3108 3104 3101 3098 3095 3092 3089 3087 3084 3082 3080 3077 3075 3073 3072 3068 3064 3062 3062 3061 3060 3057 3054
3141 3141 3140 3140 3140 3139 3138 3137 3136 3134 3130 3128 3126 3124 3121 3118 3115 3112 3109 3106 3102 3099 3096 3092 3089 3086 3083 3081 3078 3076 3075 3072 3069 3065 3064 3061 3058 3054 3053 3052 3050 3048 3046